Other Public Products
Issued by NWS Charleston, SC

Home | Current Version | Previous Version | Text Only | Print | Product List | Glossary On
Versions: 1 2 3 4 5 6 7 8 9 10 11 12 13 14 15 16 17 18 19 20 21 22 23 24 25 26 27 28 29 30 31 32 33 34 35 36 37 38 39 40 41 42 43 44 45 46 47 48 49 50
260
FPUS82 KCHS 180412
OPUCHS

TEST...KCHS/KSAV Gateway Observations...TEST
National Weather Service Charleston SC
1100 PM EST TUE JAN 17 2017

NOTE: "fair" indicates few or no clouds below 12,000 feet with no
significant weather and/or obstructions to visibility.

SCZ050-WAZ558-NCZ071-TXZ119-213-PAZ071-DCZ001-FLZ074-172-MI076-
NYZ176-178-MAZ016-IL014-TNZ027-NJZ106-GAZ044-MD014-180500-
...Gateway Observations for Charleston International...

CITY           SKY/WX    TMP DP  RH WIND       PRES   REMARKS
Chas Airport   PTCLDY    60  57  89 SW8       30.17F
Seattle        RAIN      45  45 100 CALM      29.52F FOG
Charlotte      CLOUDY    63  53  70 SW15      30.06F
Dallas DFW     CLOUDY    48  45  89 NE7       30.15R
Dallas Love    CLOUDY    49  44  83 NE8       30.15F
Philladelphia  FOG       43  42  97 NE3       29.94F VSB 3/4
Wash National  CLOUDY    47  47 100 NE8       29.91F FOG
Baltimore      FOG       44  44 100 CALM      29.91F VSB 1/4
Miami          PTCLDY    72  62  71 E3        30.23R
Detroit        CLOUDY    40  37  89 W9        29.92R WCI  34
Newark         DRIZZLE   39  38  96 N10       29.97F FOG     WCI  32
Laguardia      CLOUDY    39  37  92 NE14      29.98F FOG     WCI  31
J F K          FOG       42  38  85 NE10      29.98F VSB 1
Boston Logan   LGT SNOW  36  35  96 E20G28    30.12F FOG     WCI  25
Ft. Lauderdale PTCLDY    72  62  71 CALM      30.22S
Chicago O`Hare DRIZZLE   35  33  92 W12       29.99R WCI  27
Chicago Midway DRIZZLE   34  34 100 W12G18    30.00R FOG     WCI  25
Houston Bush   LGT RAIN  59  58  96 NE8       30.06S VSB 1/4
Houston Hobby  LGT RAIN  62  60  93 NE9       30.04F FOG
Nashville      CLOUDY    53  46  77 W8        30.16R
Atlanta        MOCLDY    63  57  81 SW9       30.15S

$$

GAZ044-118-TXZ119-213-NCZ071-DCZ001-MDZ014-506-PAZ021-071-NJZ106-
NYZ176-178-MAZ106-OHZ011-021-055-MIZ076-KYZ091-ILZ014-INZ047-
MNZ060-180500-
...Gateway Observations for Savannah International...

CITY           SKY/WX    TMP DP  RH WIND       PRES   REMARKS
Savannah Arpt  PTCLDY    62  57  83 S9        30.20S
Atlanta        MOCLDY    63  57  81 SW9       30.15S
Charlotte      CLOUDY    63  53  70 SW15      30.06F
Dallas DFW     CLOUDY    48  45  89 NE7       30.15R
Houston Bush   LGT RAIN  59  58  96 NE8       30.06S VSB 1/4
Wash National  CLOUDY    47  47 100 NE8       29.91F FOG
Wash Dulles    CLOUDY    52  50  93 S3        29.90F FOG
Baltimore      FOG       44  44 100 CALM      29.91F VSB 1/4
Philadelphia   FOG       43  42  97 NE3       29.94F VSB 3/4
Newark         DRIZZLE   39  38  96 N10       29.97F FOG     WCI  32
Laguardia      CLOUDY    39  37  92 NE14      29.98F FOG     WCI  31
J F K          FOG       42  38  85 NE10      29.98F VSB 1
Boston         LGT SNOW  36  35  96 E20G28    30.12F FOG     WCI  25
Pittsburg      CLOUDY    52  46  80 NW13      29.88R
Akron          CLOUDY    49  41  74 W12       29.91R
Cleveland      CLOUDY    47  41  80 W14G21    29.94R
Cincinnati     DRIZZLE   44  42  93 W10       30.05R
Columbus         N/A     46  42  85 W12       30.00R
Detroit        CLOUDY    40  37  89 W9        29.92R WCI  34
Chicago O`Hare DRIZZLE   35  33  92 W12       29.99R WCI  27
Minneapolis    CLOUDY    30  26  85 SW9       30.00S WCI  22
Indianapolis   CLOUDY    39  37  92 W16       30.06R WCI  30

$$




USA.gov is the U.S. government's official web portal to all federal, state and local government web resources and services.